N402NE KOMA-KPDX

Flight info

Callsign N402NE
Flight time 2h 52m
Altitude 38000
Route SCB GUDDY ODDLL IKFOM Q152 WEDAK Q148 FINUT JORAD HHOOD6
Aircraft C750/M-SBDE3FGHRWXY/S

Departure

Time 2026-05-08 16:28
Airport Eppley Airfield (KOMA)

Arrival

Time 2026-05-08 19:20
Airport Portland International Airport (KPDX)
Time Latitude Longitude Altitude Speed Heading
2026-05-08 16:11 41.30312 -95.88583 981 ft 0 kts 295°
2026-05-08 16:22 41.30314 -95.88590 988 ft 3 kts 293°
2026-05-08 16:23 41.30308 -95.88638 985 ft 8 kts 254°
2026-05-08 16:23 41.30320 -95.88700 985 ft 7 kts 312°
2026-05-08 16:23 41.30349 -95.88755 981 ft 8 kts 265°
2026-05-08 16:23 41.30343 -95.88814 981 ft 7 kts 310°
2026-05-08 16:24 41.30401 -95.88869 988 ft 13 kts 324°
2026-05-08 16:24 41.30483 -95.88947 985 ft 14 kts 324°
2026-05-08 16:24 41.30559 -95.89020 985 ft 13 kts 325°
2026-05-08 16:24 41.30636 -95.89093 984 ft 16 kts 324°
2026-05-08 16:25 41.30728 -95.89180 988 ft 15 kts 324°
2026-05-08 16:25 41.30817 -95.89237 987 ft 14 kts 359°
2026-05-08 16:25 41.30912 -95.89237 981 ft 16 kts
2026-05-08 16:25 41.31044 -95.89236 981 ft 20 kts
2026-05-08 16:26 41.31175 -95.89236 981 ft 18 kts
2026-05-08 16:26 41.31289 -95.89235 981 ft 13 kts 360°
2026-05-08 16:26 41.31325 -95.89316 981 ft 11 kts 269°
2026-05-08 16:26 41.31324 -95.89418 979 ft 11 kts 261°
2026-05-08 16:27 41.31270 -95.89453 982 ft 11 kts 180°
2026-05-08 16:27 41.31058 -95.89454 985 ft 73 kts 180°
2026-05-08 16:27 41.30247 -95.89458 988 ft 148 kts 180°
2026-05-08 16:27 41.29202 -95.89481 1483 ft 152 kts 181°
2026-05-08 16:28 41.28134 -95.89682 2110 ft 158 kts 193°
2026-05-08 16:28 41.27034 -95.89953 2669 ft 172 kts 192°
2026-05-08 16:28 41.25738 -95.90262 3056 ft 202 kts 192°
2026-05-08 16:28 41.24294 -95.90661 3769 ft 211 kts 201°
2026-05-08 16:29 41.23206 -95.91903 4632 ft 211 kts 246°
2026-05-08 16:29 41.22954 -95.93826 5275 ft 228 kts 270°
2026-05-08 16:29 41.22964 -95.96038 5775 ft 252 kts 272°
2026-05-08 16:29 41.22990 -95.98444 6509 ft 261 kts 272°
2026-05-08 16:30 41.23497 -96.00720 7430 ft 261 kts 303°
2026-05-08 16:30 41.24722 -96.02493 8551 ft 260 kts 313°
2026-05-08 16:30 41.25970 -96.04279 9586 ft 261 kts 308°
2026-05-08 16:30 41.27094 -96.06187 10368 ft 267 kts 305°
2026-05-08 16:31 41.28263 -96.08252 10553 ft 292 kts 306°
2026-05-08 16:31 41.29577 -96.10474 10616 ft 319 kts 307°
2026-05-08 16:31 41.30991 -96.12809 11204 ft 324 kts 307°
2026-05-08 16:31 41.32392 -96.15156 11996 ft 325 kts 307°
2026-05-08 16:32 41.33792 -96.17535 12681 ft 328 kts 307°
2026-05-08 16:32 41.35203 -96.19924 13418 ft 329 kts 307°
2026-05-08 16:32 41.36633 -96.22332 14063 ft 332 kts 308°
2026-05-08 16:32 41.38068 -96.24752 14689 ft 334 kts 307°
2026-05-08 16:33 41.39504 -96.27183 15290 ft 336 kts 307°
2026-05-08 16:33 41.40957 -96.29647 15912 ft 339 kts 307°
2026-05-08 16:33 41.42421 -96.32126 16553 ft 342 kts 307°
2026-05-08 16:33 41.43893 -96.34621 17213 ft 344 kts 307°
2026-05-08 16:34 41.45377 -96.37140 17875 ft 347 kts 307°
2026-05-08 16:34 41.46876 -96.39687 18518 ft 350 kts 307°
2026-05-08 16:34 41.48381 -96.42245 19124 ft 352 kts 307°
2026-05-08 16:34 41.49899 -96.44827 19747 ft 355 kts 307°
2026-05-08 16:35 41.51425 -96.47425 20380 ft 358 kts 307°
2026-05-08 16:35 41.52968 -96.50056 21018 ft 360 kts 307°
2026-05-08 16:35 41.54522 -96.52705 21628 ft 363 kts 306°
2026-05-08 16:35 41.56086 -96.55375 22232 ft 366 kts 306°
2026-05-08 16:36 41.57663 -96.58070 22843 ft 369 kts 306°
2026-05-08 16:36 41.59248 -96.60781 23439 ft 372 kts 306°
2026-05-08 16:36 41.60805 -96.63556 23905 ft 375 kts 303°
2026-05-08 16:36 41.62174 -96.66523 24400 ft 376 kts 300°
2026-05-08 16:37 41.63571 -96.69497 24903 ft 379 kts 301°
2026-05-08 16:37 41.64998 -96.72479 25402 ft 382 kts 301°
2026-05-08 16:37 41.66415 -96.75485 25889 ft 384 kts 301°
2026-05-08 16:37 41.67830 -96.78530 26393 ft 387 kts 301°
2026-05-08 16:38 41.69264 -96.81597 26879 ft 390 kts 301°
2026-05-08 16:38 41.70714 -96.84681 27377 ft 393 kts 301°
2026-05-08 16:38 41.72172 -96.87792 27881 ft 396 kts 301°
2026-05-08 16:38 41.73634 -96.90927 28384 ft 399 kts 301°
2026-05-08 16:39 41.75112 -96.94099 28891 ft 403 kts 301°
2026-05-08 16:39 41.76603 -96.97293 29390 ft 406 kts 301°
2026-05-08 16:39 41.78105 -97.00516 29876 ft 410 kts 301°
2026-05-08 16:39 41.79619 -97.03770 30294 ft 413 kts 301°
2026-05-08 16:40 41.81144 -97.07055 30694 ft 417 kts 301°
2026-05-08 16:40 41.82680 -97.10362 31228 ft 417 kts 301°
2026-05-08 16:40 41.84204 -97.13644 31866 ft 415 kts 301°
2026-05-08 16:40 41.85724 -97.16927 32404 ft 415 kts 300°
2026-05-08 16:41 41.87225 -97.20172 32974 ft 414 kts 300°
2026-05-08 16:41 41.88740 -97.23449 33562 ft 413 kts 300°
2026-05-08 16:41 41.90254 -97.26726 34109 ft 412 kts 300°
2026-05-08 16:42 41.93266 -97.33261 35111 ft 411 kts 300°
2026-05-08 16:42 41.94770 -97.36530 35622 ft 411 kts 300°
2026-05-08 16:42 41.96268 -97.39788 36136 ft 410 kts 300°
2026-05-08 16:42 41.97763 -97.43044 36631 ft 410 kts 300°
2026-05-08 16:43 41.99260 -97.46306 37123 ft 409 kts 300°
2026-05-08 16:43 42.00753 -97.49564 37636 ft 409 kts 300°
2026-05-08 16:43 42.02242 -97.52817 38135 ft 409 kts 300°
2026-05-08 16:43 42.03732 -97.56076 38610 ft 409 kts 300°
2026-05-08 16:44 42.05218 -97.59329 38989 ft 409 kts 300°
2026-05-08 16:44 42.06706 -97.62590 39370 ft 409 kts 300°
2026-05-08 16:44 42.08194 -97.65856 39733 ft 409 kts 300°
2026-05-08 16:44 42.09683 -97.69126 40104 ft 410 kts 300°
2026-05-08 16:45 42.11173 -97.72404 40473 ft 411 kts 300°
2026-05-08 16:45 42.12662 -97.75681 40858 ft 411 kts 300°
2026-05-08 16:45 42.14153 -97.78966 41235 ft 411 kts 300°
2026-05-08 16:45 42.15643 -97.82255 41605 ft 411 kts 300°
2026-05-08 16:46 42.17134 -97.85547 41974 ft 412 kts 300°
2026-05-08 16:46 42.18632 -97.88860 42223 ft 415 kts 300°
2026-05-08 16:46 42.20136 -97.92189 42471 ft 417 kts 300°
2026-05-08 16:46 42.21651 -97.95547 42733 ft 420 kts 300°
2026-05-08 16:47 42.23173 -97.98923 42889 ft 425 kts 300°
2026-05-08 16:47 42.26300 -98.05873 42900 ft 440 kts 300°
2026-05-08 16:48 42.29506 -98.13013 42893 ft 448 kts 300°
2026-05-08 16:48 42.32742 -98.20241 42884 ft 455 kts 300°
2026-05-08 16:49 42.36034 -98.27608 42881 ft 460 kts 300°
2026-05-08 16:49 42.39353 -98.35057 42890 ft 464 kts 300°
2026-05-08 16:50 42.42687 -98.42559 42900 ft 466 kts 300°
2026-05-08 16:50 42.46029 -98.50095 42898 ft 467 kts 300°
2026-05-08 16:51 42.49372 -98.57655 42906 ft 467 kts 300°
2026-05-08 16:51 42.52695 -98.65189 42902 ft 466 kts 300°
2026-05-08 16:52 42.55995 -98.72688 42897 ft 465 kts 300°
2026-05-08 16:52 42.59293 -98.80202 42890 ft 462 kts 300°
2026-05-08 16:53 42.64193 -98.91405 42875 ft 458 kts 300°
2026-05-08 16:53 42.67437 -98.98842 42878 ft 457 kts 300°
2026-05-08 16:54 42.70664 -99.06262 42877 ft 456 kts 300°
2026-05-08 16:54 42.73881 -99.13677 42859 ft 455 kts 300°
2026-05-08 16:55 42.77093 -99.21097 42868 ft 455 kts 300°
2026-05-08 16:55 42.80293 -99.28511 42863 ft 454 kts 300°
2026-05-08 16:56 42.83469 -99.35886 42877 ft 454 kts 300°
2026-05-08 16:56 42.86661 -99.43316 42865 ft 454 kts 300°
2026-05-08 16:57 42.89846 -99.50750 42863 ft 454 kts 300°
2026-05-08 16:57 42.93024 -99.58187 42873 ft 454 kts 300°
2026-05-08 16:58 42.96199 -99.65636 42865 ft 454 kts 300°
2026-05-08 16:58 42.99370 -99.73093 42871 ft 454 kts 300°
2026-05-08 16:59 43.02534 -99.80554 42862 ft 454 kts 300°
2026-05-08 16:59 43.05697 -99.88032 42872 ft 454 kts 300°
2026-05-08 17:00 43.08851 -99.95507 42868 ft 454 kts 300°
2026-05-08 17:00 43.12007 -100.03005 42872 ft 454 kts 300°
2026-05-08 17:01 43.15154 -100.10503 42878 ft 454 kts 300°
2026-05-08 17:01 43.18297 -100.18011 42871 ft 454 kts 300°
2026-05-08 17:02 43.21441 -100.25539 42881 ft 455 kts 299°
2026-05-08 17:02 43.24589 -100.33098 42884 ft 458 kts 299°
2026-05-08 17:03 43.27219 -100.39428 42886 ft 460 kts 299°
2026-05-08 17:03 43.30396 -100.47092 42891 ft 463 kts 299°
2026-05-08 17:04 43.33586 -100.54810 42890 ft 465 kts 299°
2026-05-08 17:04 43.36595 -100.62701 42873 ft 467 kts 292°
2026-05-08 17:05 43.38473 -100.71232 42898 ft 467 kts 287°
2026-05-08 17:05 43.40242 -100.79815 42903 ft 467 kts 287°
2026-05-08 17:06 43.41985 -100.88429 42904 ft 468 kts 287°
2026-05-08 17:06 43.43736 -100.97053 42904 ft 469 kts 287°
2026-05-08 17:07 43.45479 -101.05711 42900 ft 469 kts 287°
2026-05-08 17:07 43.47224 -101.14400 42895 ft 470 kts 287°
2026-05-08 17:08 43.48960 -101.23083 42893 ft 471 kts 287°
2026-05-08 17:08 43.50692 -101.31791 42897 ft 471 kts 287°
2026-05-08 17:09 43.52407 -101.40448 42897 ft 472 kts 287°
2026-05-08 17:09 43.54127 -101.49164 42894 ft 472 kts 286°
2026-05-08 17:10 43.55840 -101.57890 42895 ft 470 kts 286°
2026-05-08 17:10 43.57538 -101.66577 42890 ft 468 kts 286°
2026-05-08 17:11 43.59220 -101.75216 42895 ft 466 kts 286°
2026-05-08 17:11 43.60889 -101.83826 42891 ft 464 kts 286°
2026-05-08 17:12 43.62548 -101.92425 42892 ft 463 kts 286°
2026-05-08 17:12 43.64196 -102.01006 42894 ft 462 kts 286°
2026-05-08 17:13 43.65835 -102.09577 42896 ft 462 kts 286°
2026-05-08 17:13 43.67467 -102.18150 42894 ft 461 kts 286°
2026-05-08 17:14 43.69091 -102.26717 42899 ft 461 kts 286°
2026-05-08 17:14 43.70708 -102.35290 42900 ft 461 kts 286°
2026-05-08 17:15 43.72320 -102.43872 42905 ft 461 kts 286°
2026-05-08 17:15 43.73924 -102.52451 42909 ft 461 kts 286°
2026-05-08 17:16 43.75524 -102.61046 42909 ft 462 kts 286°
2026-05-08 17:16 43.77118 -102.69649 42906 ft 462 kts 286°
2026-05-08 17:17 43.78709 -102.78275 42915 ft 462 kts 286°
2026-05-08 17:17 43.80294 -102.86907 42919 ft 463 kts 286°
2026-05-08 17:18 43.81871 -102.95541 42930 ft 463 kts 286°
2026-05-08 17:18 43.83447 -103.04202 42938 ft 463 kts 286°
2026-05-08 17:19 43.85003 -103.12800 42937 ft 464 kts 286°
2026-05-08 17:19 43.86567 -103.21477 42934 ft 464 kts 286°
2026-05-08 17:20 43.88123 -103.30154 42929 ft 464 kts 286°
2026-05-08 17:20 43.89672 -103.38835 42972 ft 464 kts 286°
2026-05-08 17:21 43.91215 -103.47522 42991 ft 464 kts 286°
2026-05-08 17:21 43.92753 -103.56222 42995 ft 464 kts 286°
2026-05-08 17:22 43.94284 -103.64926 42997 ft 465 kts 286°
2026-05-08 17:22 43.95811 -103.73647 42987 ft 465 kts 286°
2026-05-08 17:23 43.97331 -103.82368 42972 ft 465 kts 286°
2026-05-08 17:23 43.98834 -103.91040 42978 ft 465 kts 286°
2026-05-08 17:24 44.00342 -103.99780 42996 ft 465 kts 286°
2026-05-08 17:24 44.01844 -104.08524 43007 ft 465 kts 285°
2026-05-08 17:25 44.03341 -104.17291 43020 ft 465 kts 285°
2026-05-08 17:25 44.04852 -104.26033 43015 ft 465 kts 288°
2026-05-08 17:26 44.06784 -104.34597 43021 ft 465 kts 289°
2026-05-08 17:26 44.08696 -104.43231 42992 ft 468 kts 291°
2026-05-08 17:27 44.10623 -104.51851 42998 ft 466 kts 291°
2026-05-08 17:27 44.12532 -104.60484 42977 ft 467 kts 291°
2026-05-08 17:28 44.14439 -104.69115 42960 ft 467 kts 291°
2026-05-08 17:28 44.16324 -104.77699 42959 ft 465 kts 290°
2026-05-08 17:29 44.18206 -104.86294 42955 ft 462 kts 290°
2026-05-08 17:29 44.20069 -104.94836 42960 ft 459 kts 290°
2026-05-08 17:30 44.21914 -105.03333 42957 ft 457 kts 290°
2026-05-08 17:30 44.23745 -105.11798 42973 ft 455 kts 290°
2026-05-08 17:31 44.25562 -105.20234 42990 ft 453 kts 290°
2026-05-08 17:31 44.27368 -105.28655 43007 ft 453 kts 290°
2026-05-08 17:32 44.29165 -105.37059 43021 ft 452 kts 290°
2026-05-08 17:32 44.30956 -105.45477 43038 ft 452 kts 290°
2026-05-08 17:33 44.32741 -105.53897 43037 ft 452 kts 290°
2026-05-08 17:33 44.34520 -105.62327 43037 ft 452 kts 290°
2026-05-08 17:34 44.36294 -105.70766 43029 ft 453 kts 290°
2026-05-08 17:34 44.38062 -105.79212 43012 ft 453 kts 290°
2026-05-08 17:35 44.39826 -105.87671 42990 ft 453 kts 290°
2026-05-08 17:35 44.41584 -105.96136 42976 ft 453 kts 290°
2026-05-08 17:36 44.43336 -106.04610 42960 ft 454 kts 290°
2026-05-08 17:36 44.45072 -106.13040 42958 ft 454 kts 290°
2026-05-08 17:37 44.46816 -106.21549 42963 ft 454 kts 290°
2026-05-08 17:37 44.48552 -106.30048 42970 ft 454 kts 289°
2026-05-08 17:38 44.50279 -106.38545 42982 ft 453 kts 289°
2026-05-08 17:38 44.52001 -106.47049 43000 ft 453 kts 289°
2026-05-08 17:39 44.53713 -106.55541 43011 ft 453 kts 289°
2026-05-08 17:39 44.55421 -106.64052 43016 ft 453 kts 289°
2026-05-08 17:40 44.57124 -106.72568 43015 ft 454 kts 289°
2026-05-08 17:40 44.58823 -106.81109 43017 ft 455 kts 289°
2026-05-08 17:41 44.60520 -106.89669 43022 ft 457 kts 289°
2026-05-08 17:41 44.62221 -106.98288 43039 ft 460 kts 289°
2026-05-08 17:42 44.63925 -107.06969 43033 ft 462 kts 289°
2026-05-08 17:42 44.65632 -107.15695 43037 ft 464 kts 289°
2026-05-08 17:43 44.67333 -107.24435 43026 ft 465 kts 289°
2026-05-08 17:43 44.69021 -107.33147 43025 ft 465 kts 289°
2026-05-08 17:44 44.70714 -107.41921 43029 ft 465 kts 289°
2026-05-08 17:44 44.72402 -107.50713 43029 ft 466 kts 289°
2026-05-08 17:45 44.74086 -107.59523 43038 ft 467 kts 289°
2026-05-08 17:45 44.75765 -107.68348 43041 ft 466 kts 288°
2026-05-08 17:46 44.77436 -107.77169 43040 ft 466 kts 288°
2026-05-08 17:46 44.79100 -107.85992 43034 ft 467 kts 288°
2026-05-08 17:47 44.80758 -107.94829 43047 ft 466 kts 288°
2026-05-08 17:47 44.82130 -108.02174 43039 ft 467 kts 288°
2026-05-08 17:48 44.84052 -108.12511 43031 ft 467 kts 288°
2026-05-08 17:48 44.85689 -108.21359 43027 ft 466 kts 288°
2026-05-08 17:49 44.87317 -108.30200 43029 ft 466 kts 288°
2026-05-08 17:49 44.88940 -108.39058 43035 ft 466 kts 288°
2026-05-08 17:50 44.90552 -108.47893 43046 ft 465 kts 288°
2026-05-08 17:50 44.92208 -108.56707 43069 ft 463 kts 289°
2026-05-08 17:51 44.93684 -108.63972 43069 ft 464 kts 289°
2026-05-08 17:51 44.95741 -108.74224 43076 ft 464 kts 289°
2026-05-08 17:52 44.97206 -108.81518 43072 ft 464 kts 289°
2026-05-08 17:53 44.99828 -108.94684 43063 ft 464 kts 289°
2026-05-08 17:53 45.01569 -109.03458 43040 ft 463 kts 289°
2026-05-08 17:54 45.03299 -109.12231 43029 ft 463 kts 289°
2026-05-08 17:54 45.05021 -109.20994 43016 ft 462 kts 289°
2026-05-08 17:55 45.06733 -109.29750 43026 ft 462 kts 289°
2026-05-08 17:55 45.08441 -109.38515 43021 ft 463 kts 289°
2026-05-08 17:56 45.10144 -109.47310 43021 ft 463 kts 289°
2026-05-08 17:56 45.11840 -109.56098 43028 ft 463 kts 289°
2026-05-08 17:57 45.13535 -109.64922 43025 ft 465 kts 289°
2026-05-08 17:57 45.15223 -109.73757 43028 ft 464 kts 288°
2026-05-08 17:58 45.16892 -109.82529 43026 ft 463 kts 288°
2026-05-08 17:58 45.18564 -109.91346 43022 ft 464 kts 288°
2026-05-08 17:59 45.20227 -110.00181 43023 ft 463 kts 288°
2026-05-08 17:59 45.21878 -110.08973 43026 ft 461 kts 288°
2026-05-08 18:00 45.23523 -110.17778 43023 ft 462 kts 288°
2026-05-08 18:00 45.25980 -110.31011 43022 ft 463 kts 288°
2026-05-08 18:01 45.27613 -110.39862 43013 ft 464 kts 288°
2026-05-08 18:01 45.29241 -110.48725 43011 ft 463 kts 288°
2026-05-08 18:02 45.30860 -110.57579 43016 ft 462 kts 288°
2026-05-08 18:02 45.32472 -110.66439 43010 ft 463 kts 288°
2026-05-08 18:03 45.34070 -110.75263 43006 ft 464 kts 288°
2026-05-08 18:03 45.35670 -110.84146 43009 ft 464 kts 288°
2026-05-08 18:04 45.37264 -110.93033 43006 ft 463 kts 288°
2026-05-08 18:04 45.38843 -111.01885 42969 ft 462 kts 287°
2026-05-08 18:05 45.40411 -111.10715 43007 ft 461 kts 288°
2026-05-08 18:05 45.41977 -111.19573 43010 ft 462 kts 287°
2026-05-08 18:06 45.43539 -111.28459 43028 ft 463 kts 287°
2026-05-08 18:06 45.45096 -111.37355 43045 ft 464 kts 287°
2026-05-08 18:07 45.46649 -111.46277 43052 ft 464 kts 287°
2026-05-08 18:07 45.48196 -111.55212 43056 ft 464 kts 287°
2026-05-08 18:08 45.49735 -111.64139 43038 ft 463 kts 287°
2026-05-08 18:08 45.51253 -111.72994 43028 ft 463 kts 287°
2026-05-08 18:09 45.52772 -111.81900 43014 ft 462 kts 287°
2026-05-08 18:09 45.54284 -111.90807 43004 ft 461 kts 287°
2026-05-08 18:10 45.55786 -111.99705 43020 ft 461 kts 287°
2026-05-08 18:10 45.57281 -112.08599 43045 ft 461 kts 287°
2026-05-08 18:11 45.58764 -112.17479 43068 ft 460 kts 287°
2026-05-08 18:11 45.60244 -112.26372 43064 ft 460 kts 287°
2026-05-08 18:12 45.61713 -112.35260 43060 ft 459 kts 287°
2026-05-08 18:12 45.63161 -112.44059 43056 ft 458 kts 287°
2026-05-08 18:13 45.64616 -112.52942 43037 ft 459 kts 286°
2026-05-08 18:13 45.66066 -112.61848 43018 ft 461 kts 287°
2026-05-08 18:14 45.67512 -112.70774 43003 ft 461 kts 286°
2026-05-08 18:14 45.68952 -112.79718 43004 ft 462 kts 286°
2026-05-08 18:15 45.70386 -112.88662 43005 ft 461 kts 285°
2026-05-08 18:15 45.71813 -112.97620 43011 ft 462 kts 285°
2026-05-08 18:16 45.73234 -113.06587 43016 ft 462 kts 285°
2026-05-08 18:16 45.74647 -113.15543 43024 ft 461 kts 285°
2026-05-08 18:17 45.76052 -113.24506 43022 ft 461 kts 285°
2026-05-08 18:17 45.77452 -113.33484 43024 ft 461 kts 285°
2026-05-08 18:18 45.78842 -113.42447 43021 ft 461 kts 285°
2026-05-08 18:18 45.80223 -113.51403 43028 ft 460 kts 285°
2026-05-08 18:19 45.81594 -113.60343 43028 ft 459 kts 284°
2026-05-08 18:19 45.82948 -113.69224 43034 ft 458 kts 284°
2026-05-08 18:20 45.84303 -113.78154 43033 ft 458 kts 284°
2026-05-08 18:20 45.85649 -113.87082 43029 ft 458 kts 284°
2026-05-08 18:21 45.86986 -113.96004 43036 ft 457 kts 284°
2026-05-08 18:21 45.88316 -114.04915 43035 ft 456 kts 284°
2026-05-08 18:22 45.90374 -114.13474 43033 ft 453 kts 294°
2026-05-08 18:22 45.92895 -114.21776 43044 ft 454 kts 294°
2026-05-08 18:23 45.95405 -114.30106 43043 ft 455 kts 294°
2026-05-08 18:23 45.97927 -114.38463 43041 ft 456 kts 294°
2026-05-08 18:24 46.00423 -114.46793 43053 ft 456 kts 294°
2026-05-08 18:24 46.02931 -114.55169 43052 ft 457 kts 294°
2026-05-08 18:25 46.05437 -114.63582 43051 ft 457 kts 293°
2026-05-08 18:25 46.07941 -114.72006 43049 ft 458 kts 293°
2026-05-08 18:26 46.10440 -114.80448 43048 ft 458 kts 293°
2026-05-08 18:26 46.12931 -114.88888 43049 ft 458 kts 293°
2026-05-08 18:27 46.15003 -114.95932 43039 ft 458 kts 293°
2026-05-08 18:27 46.17906 -115.05840 43041 ft 458 kts 292°
2026-05-08 18:28 46.20376 -115.14290 43034 ft 458 kts 292°
2026-05-08 18:28 46.22842 -115.22764 43041 ft 457 kts 292°
2026-05-08 18:29 46.25288 -115.31196 43042 ft 458 kts 292°
2026-05-08 18:29 46.27745 -115.39696 43044 ft 458 kts 292°
2026-05-08 18:30 46.30194 -115.48199 43032 ft 458 kts 292°
2026-05-08 18:30 46.32640 -115.56714 43021 ft 459 kts 292°
2026-05-08 18:31 46.35086 -115.65268 43017 ft 460 kts 292°
2026-05-08 18:31 46.37523 -115.73816 43025 ft 460 kts 292°
2026-05-08 18:32 46.39960 -115.82392 43027 ft 461 kts 291°
2026-05-08 18:32 46.42394 -115.90994 43031 ft 461 kts 291°
2026-05-08 18:33 46.44825 -115.99610 43033 ft 462 kts 291°
2026-05-08 18:33 46.47250 -116.08237 43029 ft 462 kts 291°
2026-05-08 18:34 46.49675 -116.16893 43029 ft 463 kts 291°
2026-05-08 18:34 46.52090 -116.25549 43025 ft 463 kts 291°
2026-05-08 18:35 46.54489 -116.34177 43026 ft 464 kts 291°
2026-05-08 18:35 46.56896 -116.42865 43028 ft 464 kts 291°
2026-05-08 18:36 46.59309 -116.51602 43030 ft 465 kts 290°
2026-05-08 18:36 46.61712 -116.60341 43030 ft 466 kts 290°
2026-05-08 18:37 46.64111 -116.69095 43039 ft 466 kts 290°
2026-05-08 18:37 46.66510 -116.77881 43060 ft 467 kts 290°
2026-05-08 18:38 46.68905 -116.86684 43076 ft 468 kts 290°
2026-05-08 18:38 46.71279 -116.95445 43091 ft 468 kts 290°
2026-05-08 18:39 46.72951 -117.04575 43076 ft 467 kts 277°
2026-05-08 18:39 46.72877 -117.14030 43085 ft 469 kts 263°
2026-05-08 18:40 46.71077 -117.23181 43093 ft 472 kts 250°
2026-05-08 18:40 46.68675 -117.32086 43090 ft 473 kts 250°
2026-05-08 18:41 46.66683 -117.39495 43084 ft 473 kts 250°
2026-05-08 18:41 46.64256 -117.48419 43067 ft 474 kts 250°
2026-05-08 18:42 46.61837 -117.57337 43052 ft 475 kts 250°
2026-05-08 18:42 46.59397 -117.66261 43049 ft 475 kts 250°
2026-05-08 18:43 46.56954 -117.75188 43042 ft 475 kts 250°
2026-05-08 18:43 46.54498 -117.84115 43042 ft 476 kts 250°
2026-05-08 18:44 46.52033 -117.93046 43041 ft 476 kts 250°
2026-05-08 18:44 46.49563 -118.01958 43036 ft 475 kts 249°
2026-05-08 18:45 46.47100 -118.10817 43035 ft 471 kts 249°
2026-05-08 18:45 46.44667 -118.19534 43027 ft 468 kts 249°
2026-05-08 18:46 46.42226 -118.28245 43034 ft 465 kts 249°
2026-05-08 18:46 46.39793 -118.36900 43031 ft 463 kts 249°
2026-05-08 18:47 46.37364 -118.45512 43033 ft 461 kts 249°
2026-05-08 18:47 46.34933 -118.54097 43036 ft 460 kts 249°
2026-05-08 18:48 46.32498 -118.62665 43030 ft 460 kts 249°
2026-05-08 18:48 46.30052 -118.71246 43034 ft 461 kts 249°
2026-05-08 18:49 46.27599 -118.79820 43047 ft 463 kts 249°
2026-05-08 18:49 46.25120 -118.88451 43061 ft 467 kts 249°
2026-05-08 18:50 46.22633 -118.97087 43063 ft 470 kts 248°
2026-05-08 18:50 46.20106 -119.05820 43060 ft 473 kts 248°
2026-05-08 18:51 46.17560 -119.14593 43059 ft 474 kts 248°
2026-05-08 18:51 46.15001 -119.23381 43056 ft 475 kts 248°
2026-05-08 18:52 46.12431 -119.32172 43034 ft 476 kts 248°
2026-05-08 18:52 46.09867 -119.40914 43026 ft 470 kts 248°
2026-05-08 18:53 46.07313 -119.49595 42410 ft 476 kts 248°
2026-05-08 18:53 46.06040 -119.53911 41813 ft 474 kts 247°
2026-05-08 18:53 46.04752 -119.58261 41206 ft 470 kts 247°
2026-05-08 18:54 46.03470 -119.62589 40584 ft 467 kts 246°
2026-05-08 18:54 46.02196 -119.66887 39967 ft 465 kts 246°
2026-05-08 18:54 46.00930 -119.71149 39358 ft 464 kts 246°
2026-05-08 18:54 45.99660 -119.75411 38740 ft 462 kts 245°
2026-05-08 18:55 45.97129 -119.83892 37482 ft 460 kts 245°
2026-05-08 18:55 45.95863 -119.88124 36876 ft 461 kts 245°
2026-05-08 18:55 45.94594 -119.92357 36269 ft 462 kts 245°
2026-05-08 18:56 45.93317 -119.96609 35661 ft 464 kts 244°
2026-05-08 18:56 45.92053 -120.00815 35058 ft 465 kts 244°
2026-05-08 18:56 45.90752 -120.05133 34437 ft 466 kts 244°
2026-05-08 18:56 45.89466 -120.09394 33796 ft 465 kts 244°
2026-05-08 18:57 45.88180 -120.13651 33186 ft 463 kts 244°
2026-05-08 18:57 45.87332 -120.16454 32783 ft 462 kts 244°
2026-05-08 18:57 45.85636 -120.22043 31981 ft 460 kts 244°
2026-05-08 18:57 45.84357 -120.26254 31378 ft 460 kts 244°
2026-05-08 18:58 45.83081 -120.30450 30774 ft 459 kts 244°
2026-05-08 18:58 45.81801 -120.34649 30172 ft 459 kts 244°
2026-05-08 18:58 45.80524 -120.38830 29536 ft 457 kts 244°
2026-05-08 18:58 45.79250 -120.42998 28931 ft 455 kts 244°
2026-05-08 18:59 45.77984 -120.47129 28343 ft 452 kts 244°
2026-05-08 18:59 45.76728 -120.51239 27751 ft 448 kts 244°
2026-05-08 18:59 45.75767 -120.55463 27164 ft 446 kts 252°
2026-05-08 18:59 45.74980 -120.59744 26582 ft 442 kts 252°
2026-05-08 19:00 45.74172 -120.63940 26010 ft 430 kts 251°
2026-05-08 19:00 45.73368 -120.68015 25453 ft 419 kts 251°
2026-05-08 19:00 45.72600 -120.71993 24909 ft 410 kts 252°
2026-05-08 19:00 45.71857 -120.75893 24385 ft 402 kts 252°
2026-05-08 19:01 45.71120 -120.79712 23866 ft 394 kts 252°
2026-05-08 19:01 45.70390 -120.83449 23312 ft 387 kts 252°
2026-05-08 19:01 45.69678 -120.87107 22817 ft 378 kts 252°
2026-05-08 19:01 45.68982 -120.90689 22330 ft 369 kts 252°
2026-05-08 19:02 45.68302 -120.94186 21849 ft 362 kts 252°
2026-05-08 19:02 45.67631 -120.97619 21378 ft 355 kts 252°
2026-05-08 19:02 45.66969 -121.00996 20922 ft 349 kts 252°
2026-05-08 19:02 45.66317 -121.04321 20464 ft 345 kts 252°
2026-05-08 19:03 45.65674 -121.07601 20018 ft 341 kts 252°
2026-05-08 19:03 45.65036 -121.10848 19574 ft 338 kts 253°
2026-05-08 19:03 45.64405 -121.14072 19125 ft 335 kts 253°
2026-05-08 19:03 45.63778 -121.17266 18684 ft 332 kts 253°
2026-05-08 19:04 45.63151 -121.20452 18005 ft 335 kts 253°
2026-05-08 19:04 45.62528 -121.23610 17537 ft 325 kts 253°
2026-05-08 19:04 45.61922 -121.26684 17120 ft 316 kts 253°
2026-05-08 19:04 45.61332 -121.29672 16705 ft 310 kts 253°
2026-05-08 19:05 45.60752 -121.32597 16308 ft 305 kts 253°
2026-05-08 19:05 45.60175 -121.35503 15894 ft 303 kts 253°
2026-05-08 19:05 45.59601 -121.38394 15495 ft 302 kts 253°
2026-05-08 19:05 45.59036 -121.41236 15110 ft 302 kts 253°
2026-05-08 19:06 45.58459 -121.44121 14710 ft 302 kts 253°
2026-05-08 19:06 45.57882 -121.47004 14325 ft 303 kts 253°
2026-05-08 19:06 45.57301 -121.49902 13911 ft 305 kts 254°
2026-05-08 19:06 45.56719 -121.52805 13486 ft 304 kts 254°
2026-05-08 19:07 45.56138 -121.55699 13092 ft 303 kts 254°
2026-05-08 19:07 45.55557 -121.58583 12692 ft 301 kts 255°
2026-05-08 19:07 45.54983 -121.61428 12295 ft 295 kts 255°
2026-05-08 19:07 45.54423 -121.64199 11913 ft 288 kts 255°
2026-05-08 19:08 45.53878 -121.66902 11547 ft 279 kts 255°
2026-05-08 19:08 45.53345 -121.69536 11187 ft 274 kts 255°
2026-05-08 19:08 45.52983 -121.72169 10784 ft 270 kts 267°
2026-05-08 19:08 45.53095 -121.74798 10479 ft 263 kts 274°
2026-05-08 19:09 45.53211 -121.77383 10152 ft 258 kts 272°
2026-05-08 19:09 45.53301 -121.79931 9786 ft 255 kts 272°
2026-05-08 19:09 45.53402 -121.82434 9473 ft 251 kts 272°
2026-05-08 19:09 45.53507 -121.84908 9129 ft 249 kts 272°
2026-05-08 19:10 45.53609 -121.87374 8795 ft 248 kts 272°
2026-05-08 19:10 45.53710 -121.89801 8483 ft 242 kts 272°
2026-05-08 19:10 45.53805 -121.92172 8202 ft 238 kts 272°
2026-05-08 19:10 45.53899 -121.94530 7861 ft 237 kts 272°
2026-05-08 19:11 45.53991 -121.96853 7573 ft 232 kts 272°
2026-05-08 19:11 45.54083 -121.99141 7251 ft 229 kts 272°
2026-05-08 19:11 45.54174 -122.01387 6987 ft 225 kts 272°
2026-05-08 19:11 45.54134 -122.03574 6655 ft 216 kts 258°
2026-05-08 19:12 45.53565 -122.05453 6662 ft 205 kts 240°
2026-05-08 19:12 45.52743 -122.07102 6680 ft 205 kts 236°
2026-05-08 19:12 45.51905 -122.08789 6703 ft 210 kts 237°
2026-05-08 19:12 45.51054 -122.10507 6700 ft 213 kts 237°
2026-05-08 19:13 45.50185 -122.12252 6564 ft 219 kts 237°
2026-05-08 19:13 45.49309 -122.14006 6308 ft 219 kts 236°
2026-05-08 19:13 45.48432 -122.15761 6019 ft 216 kts 237°
2026-05-08 19:13 45.47629 -122.17548 5713 ft 214 kts 246°
2026-05-08 19:14 45.47380 -122.19624 5425 ft 215 kts 269°
2026-05-08 19:14 45.47555 -122.21723 5194 ft 213 kts 275°
2026-05-08 19:14 45.47742 -122.23816 4930 ft 212 kts 274°
2026-05-08 19:14 45.47915 -122.25909 4653 ft 213 kts 274°
2026-05-08 19:15 45.48092 -122.28016 4374 ft 214 kts 274°
2026-05-08 19:15 45.48274 -122.30124 4090 ft 215 kts 275°
2026-05-08 19:15 45.48761 -122.32140 3799 ft 218 kts 294°
2026-05-08 19:15 45.49503 -122.33992 3638 ft 211 kts 297°
2026-05-08 19:16 45.50213 -122.35791 3428 ft 208 kts 296°
2026-05-08 19:16 45.50916 -122.37591 3142 ft 207 kts 296°
2026-05-08 19:16 45.51576 -122.39274 2856 ft 180 kts 296°
2026-05-08 19:16 45.52150 -122.40743 2625 ft 161 kts 296°
2026-05-08 19:17 45.52673 -122.42094 2415 ft 151 kts 296°
2026-05-08 19:17 45.53171 -122.43369 2225 ft 144 kts 296°
2026-05-08 19:17 45.53649 -122.44594 2034 ft 138 kts 296°
2026-05-08 19:17 45.54110 -122.45776 1857 ft 135 kts 296°
2026-05-08 19:18 45.54567 -122.46952 1663 ft 137 kts 296°
2026-05-08 19:18 45.55031 -122.48142 1476 ft 136 kts 296°
2026-05-08 19:18 45.55486 -122.49312 1298 ft 137 kts 297°
2026-05-08 19:18 45.55953 -122.50511 1097 ft 139 kts 298°
2026-05-08 19:19 45.56425 -122.51720 884 ft 140 kts 299°
2026-05-08 19:19 45.56888 -122.52949 705 ft 140 kts 299°
2026-05-08 19:19 45.57354 -122.54141 501 ft 134 kts 301°
2026-05-08 19:19 45.57797 -122.55261 299 ft 126 kts 301°
2026-05-08 19:20 45.58229 -122.56353 134 ft 125 kts 302°
2026-05-08 19:20 45.58373 -122.56715 70 ft 124 kts 302°
2026-05-08 19:20 45.58923 -122.58126 28 ft 51 kts 298°
2026-05-08 19:20 45.59020 -122.58446 28 ft 27 kts 282°
2026-05-08 19:21 45.59033 -122.58628 27 ft 11 kts 270°
2026-05-08 19:21 45.59028 -122.58676 27 ft 3 kts 246°
2026-05-08 19:21 45.59015 -122.58680 27 ft 1 kts 158°
2026-05-08 19:21 45.59002 -122.58655 27 ft 7 kts 119°
2026-05-08 19:22 45.58969 -122.58568 27 ft 13 kts 118°
2026-05-08 19:22 45.58921 -122.58446 27 ft 14 kts 120°
2026-05-08 19:22 45.58874 -122.58324 27 ft 14 kts 119°
2026-05-08 19:22 45.58828 -122.58208 28 ft 13 kts 119°
2026-05-08 19:23 45.58781 -122.58086 28 ft 18 kts 118°
2026-05-08 19:23 45.58719 -122.57928 28 ft 17 kts 119°
2026-05-08 19:23 45.58676 -122.57837 28 ft 5 kts 166°
2026-05-08 19:23 45.58630 -122.57865 28 ft 10 kts 210°
2026-05-08 19:24 45.58584 -122.57825 27 ft 8 kts 118°
2026-05-08 19:24 45.58558 -122.57760 27 ft 7 kts 122°
2026-05-08 19:24 45.58525 -122.57768 27 ft 5 kts 208°
2026-05-08 19:24 45.58503 -122.57799 27 ft 6 kts 256°
2026-05-08 19:25 45.58520 -122.57857 27 ft 6 kts 298°
2026-05-08 19:25 45.58529 -122.57878 27 ft 0 kts 300°